[Date Prev][Date Next][Thread Prev][Thread Next] - [Date Index][Thread Index][Author Index]

MIR & ISS Keps 2-19



MIR
1 16609U 86017A   99050.16392098  .00029636  00000-0  23329-3 0  2378
2 16609  51.6590 228.6174 0013906 149.1337 211.0481 15.71086689742839


ISS
1 25544U 98067A   99049.85701702  .00026439  00000-0  35570-3 0  3206
2 25544  51.5915  73.2501 0005152 129.7498 230.3921 15.57666788 14137

----
Via the sarex mailing list at AMSAT.ORG courtesy of AMSAT-NA.
To unsubscribe, send "unsubscribe sarex" to Majordomo@amsat.org



AMSAT Top AMSAT Home